NOAA NWS Hourly Roundups by Site

Regional Weather Roundup for San Diego, CA

To Select Another Site Choose from List

Select Site:  

000
ASUS46 KSGX 280410
RWRSGX

SAN DIEGO HOURLY WEATHER ROUNDUP
NATIONAL WEATHER SERVICE SAN DIEGO CA
900 PM PDT TUE SEP 27 2022

NOTE: "FAIR" INDICATES FEW OR NO CLOUDS BELOW 12,000 FEET WITH NO
SIGNIFICANT WEATHER AND/OR OBSTRUCTIONS TO VISIBILITY.

CAZ042-043-060-061-PZZ750-775-280500-

GREATER SAN DIEGO AREA

CITY           SKY/WX    TMP DP  RH WIND       PRES   REMARKS
SAN DIEGO AP   PTCLDY    72  67  84 W3        29.89R
BROWN FIELD    CLEAR     68  65  90 S3        29.89R
MIRAMAR MCAS   CLEAR     70  66  87 CALM      29.88R
MONTGOMERY FLD CLEAR     73  67  81 CALM      29.88R
GILLESPIE FLD  FAIR      75  63  64 CALM      29.87S
LEMON GROVE      N/A     74  68  82 S2        29.84R

$$

NORTH SAN DIEGO COUNTY

CITY           SKY/WX    TMP DP  RH WIND       PRES   REMARKS
CAMP PENDLETON CLEAR     69  64  84 CALM      29.88R
OCEANSIDE AP   CLEAR     69  66  90 NW3       29.87R
OCEANSIDE HBR    N/A     70 -35   1 CALM      29.94R
VISTA            N/A     71  66  84 CALM      29.85R
CARLSBAD       CLEAR     71  67  87 CALM      29.87R
ENCINITAS        N/A     69  67  92 CALM        N/A
LA JOLLA SCRIP   N/A     69  65  86 CALM      29.87R
FALLBROOK      FAIR      68  66  94 CALM      29.90R
ESCONDIDO        N/A     76  67  72 CALM      29.86R
SAN MARCOS       N/A     72  67  84 CALM      29.90R
RANCHO BERNARD   N/A     72  66  82 W1        29.86R
POWAY            N/A     73  65  78 CALM      29.88R

$$

EAST SAN DIEGO COUNTY

CITY           SKY/WX    TMP DP  RH WIND       PRES   REMARKS
RAMONA         CLEAR     73  55  53 NE3       29.93R
SANTEE           N/A     76  63  64 CALM      29.82R
LA MESA          N/A     73  66  77 CALM      29.81R
EL CAJON         N/A     76  66  69 CALM      29.74R
ALPINE           N/A     77  56  47 W2        30.03R
DESCANSO N       N/A     68  44  41 NE5       29.89R

$$

ORANGE COUNTY AND THE LOS ANGELES BASIN

CITY           SKY/WX    TMP DP  RH WIND       PRES   REMARKS
JOHN WAYNE AP  CLEAR     74  65  73 S7        29.86R
LAGUNA BEACH     N/A     71  64  79 CALM      29.86R
LAKE FOREST FR   N/A     76  58  52 CALM      29.73R
SANTA ANA        N/A     74  66  76 CALM      29.85R
HUNTINGTON BCH   N/A     70  67  90 CALM      29.85R
LOS ALAMITOS   CLEAR     73  65  75 CALM      29.83R
FULLERTON      CLEAR     78  61  55 CALM      29.85R
LONG BEACH     CLEAR     75  62  64 NW3       29.86R
L.A. AP        CLEAR     72  64  76 S5        29.86R
L.A. DOWNTOWN  CLEAR     71  64  78 CALM      29.86R

$$

THE INLAND EMPIRE

CITY           SKY/WX    TMP DP  RH WIND       PRES   REMARKS
CORONA         CLEAR     78  61  55 N3        29.88R
UPLAND AP        N/A     81  55  41 W3        29.91R
CHINO          CLEAR     78  60  53 N3        29.89R
ONTARIO        PTCLDY    80  57  45 W8        29.89R
SAN BERNARDINO CLEAR     82  54  36 W5        29.90R
RIVERSIDE AP   CLEAR     83  60  45 CALM      29.89R
MORENO VALLEY    N/A     80  60  49 CALM      29.87R
MARCH ARB      CLEAR     82  56  39 W5        29.92R
HORSETHIEF CYN   N/A     82  55  38 CALM      29.84R
PERRIS           N/A     82  52  35 CALM      29.92R
LAKE ELSINORE    N/A     82  62  50 CALM      29.79R
HEMET AP       FAIR      81  54  39 SW5       29.93R
FRENCH VALLEY  FAIR      79  57  47 CALM      29.93R
TEMECULA         N/A     77  65  65 CALM        N/A

$$

SAN BERNARDINO AND RIVERSIDE COUNTY MOUNTAINS

CITY           SKY/WX    TMP DP  RH WIND       PRES   REMARKS
BIG BEAR AP    CLEAR     55  37  50 CALM      30.32R
BIG BEAR LAKE    N/A     61  40  46 CALM      29.99R
WRIGHTWOOD       N/A     62  34  35 CALM      29.82R
IDYLLWILD        N/A     64  47  54 CALM      29.84R
TORO PEAK        N/A     58  39  48 SE6         N/A

$$

SOUTHERN DESERT INCLUDING THE COACHELLA VALLEY

CITY           SKY/WX    TMP DP  RH WIND       PRES   REMARKS
PALM SPRINGS   CLEAR     97  53  22 N6        29.84R
THOUSAND PALMS   N/A     93  56  28 N2        29.75R
INDIO            N/A     96  59  29 CALM      29.78R HX  95
THERMAL        CLEAR     88  59  37 N3        29.77R
BORREGO AP     FAIR      93  43  17 N12       29.82R
OCOTILLO WELLS   N/A     97  52  22 NW3       29.76R
CANEBRAKE        N/A     90  50  25 W2        29.75R
BLYTHE         CLEAR     94  53  25 E7        29.81R
IMPERIAL AP    CLEAR     93  56  28 N3        29.77R
EL CENTRO NAS  CLEAR     90  55  30 VRB3      29.75R
YUMA AZ        PTCLDY    94  55  26 CALM      29.79R

$$

UPPER DESERT

CITY           SKY/WX    TMP DP  RH WIND       PRES   REMARKS
VICTORVILLE AP CLEAR     82  27  13 W3G16     30.04R
HESPERIA         N/A     82  33  17 SW6       29.66R
APPLE VALLEY     N/A     69  53  55 CALM      29.91R
PALMDALE       CLEAR     80  46  30 SW7       30.00R
LANCASTER      CLEAR     80  44  27 W8        29.98R
EDWARDS AFB    CLEAR     84  49  29 NW13      29.94R
DAGGETT        CLEAR     85  45  24 E8        29.93R
29 PALMS N     CLEAR     86  47  25 S8        30.01R
29 PALMS JTNP    N/A     89  52  28 CALM      29.76R
NEEDLES        PTCLDY    94  52  24 W5        29.87R

$$

REGIONAL REPORTS

CITY           SKY/WX    TMP DP  RH WIND       PRES   REMARKS
SANTA BARBARA  PTCLDY    68  62  81 SE6       29.83S
SANDBERG       CLEAR     73  44  35 NW6       30.16R
LAS VEGAS NV   MOCLDY    89  44  20 CALM      29.97R
PHOENIX AZ     CLEAR     93  43  17 E7        29.88R
TIJUANA        CLEAR     70  68  94 W2        29.91R
ENSENADA NW      N/A     70  32  24 CALM      29.81R

$$

OFFSHORE ISLANDS

CITY           SKY/WX    TMP DP  RH WIND       PRES   REMARKS
CATALINA ARPT  CLEAR     83  36  18 W5        29.94R
SAN CLEMENTE I CLEAR     65  32  29 W7        29.90R
SAN NICOLAS IS CLEAR     63  59  87 NW23      29.88R

$$

MARINE AND OFFSHORE BUOY REPORTS

STATION/POSITION SKY/WX   TEMP    WIND        PRES    VSBY  SWELL
                          AIR SEA DIR/SP/G                  HT/PER/DIR
                          (F)     (DEG/KT/KT) (MB)    (MI)  (FT/S/D)
TANNER BANKS               66     310/ 19/ 23 1010.8R         3/200/16
S CLEMENTE BASIN           69 69  340/  4/  8 1011.2R         5/210/15
SAN NICOLAS IS.               66                N/A           3/200/14
SO. S. ROSA ISLA           63 65  310/ 23/ 29 1011.1R         3/260/16
W. S. BARBARA CH           60 58  310/ 23/ 29 1011.1R         2/230/15
M. S. BARBARA CH           66 67  250/ 14/ 16 1009.9R         2/250/10
S. MONICA BASIN            69 72  330/ 10/ 12 1011.0R         3/170/15
S PEDRO CHANNEL               72                N/A           2/180/14
OCEANSIDE OFFSHR              72                N/A           2/200/14
TORREY PINES OTR              73                N/A           2/200/17
SAN DIEGO BAY                 73              1011.1R

$$



 

View Past Reports for San Diego, CA.

Products Courtesy of NOAA-NWS
NWS Information Parsing Script by Ken True at Saratoga Weather - Script by SE Lincoln Weather.